{"data":{"norad_id":62668,"epoch":"2026-05-25T04:15:34.170048Z","epoch_age_seconds":70008,"freshness":"FRESH","line1":"1 62668U 25009BM  26145.17747882  .00003356  00000+0  14922-3 0  9993","line2":"2 62668  97.3961 224.4746 0005905  70.1646 290.0226 15.22173974132870","mean_motion":15.22173974,"eccentricity":0.0005905,"inclination_deg":97.3961,"raan_deg":224.4746,"arg_perigee_deg":70.1646,"mean_anomaly_deg":290.0226,"bstar":0.00014922,"rev_number":13287,"period_min":94.601538628067,"perigee_km":495.22345510405,"apogee_km":503.34568998122,"semimajor_km":6877.4215725426,"source":"CELESTRAK","updated_at":"2026-05-25T13:38:03.163883Z"}}